This demonstration page uses our WeatherBlox Daily Observations layout. Learn more.

Hourly Observations for October 20, 2015

Temp ( °F °C ) Dew Point ( °F °C ) Humidity (%) Winds ( mph kmh ) Pressure ( in mb ) Visibility ( mi km ) Precip ( " mm )
12:15 am 00:15 Clear 64 18 46 8 52 52 SSE 6 9 29.77 1008 10 16.09344 0 0
12:35 am 00:35 Clear 64 18 46 8 52 52 S 6 9 29.77 1008 10 16.09344 0 0
12:55 am 00:55 Clear 63 17 46 8 56 56 S 6 9 29.8 1009 10 16.09344 0 0
1:15 am 01:15 Clear 63 17 46 8 56 56 S 6 9 29.77 1008 10 16.09344 0 0
1:35 am 01:35 Clear 61 16 46 8 59 59 S 7 11 29.77 1008 10 16.09344 0 0
1:55 am 01:55 Clear 61 16 46 8 59 59 SSE 7 11 29.77 1008 10 16.09344 0 0
2:15 am 02:15 Clear 59 15 46 8 63 63 SSE 6 9 29.77 1008 10 16.09344 0 0
2:35 am 02:35 Clear 57 14 46 8 67 67 SSE 5 7 29.8 1009 10 16.09344 0 0
2:55 am 02:55 Clear 57 14 46 8 67 67 SSE 7 11 29.8 1009 10 16.09344 0 0
3:15 am 03:15 Clear 57 14 46 8 67 67 SSE 7 11 29.8 1009 10 16.09344 0 0
3:35 am 03:35 Clear 57 14 46 8 67 67 SSE 7 11 29.8 1009 10 16.09344 0 0
3:55 am 03:55 Clear 57 14 48 9 72 72 SSE 8 13 29.8 1009 10 16.09344 0 0
4:15 am 04:15 Clear 57 14 48 9 72 72 S 6 9 29.8 1009 10 16.09344 0 0
4:35 am 04:35 Clear 57 14 48 9 72 72 S 5 7 29.8 1009 10 16.09344 0 0
4:55 am 04:55 Clear 55 13 48 9 77 77 SSE 5 7 29.8 1009 10 16.09344 0 0
5:15 am 05:15 Clear 55 13 48 9 77 77 Calm 29.8 1009 10 16.09344 0 0
5:35 am 05:35 Clear 55 13 46 8 72 72 SSE 3 6 29.8 1009 10 16.09344 0 0
5:55 am 05:55 Clear 54 12 46 8 77 77 SSE 5 7 29.8 1009 10 16.09344 0 0
6:15 am 06:15 Clear 54 12 46 8 77 77 SSE 3 6 29.8 1009 10 16.09344 0 0
6:35 am 06:35 Clear 54 12 48 9 82 82 SSE 3 6 29.8 1009 10 16.09344 0 0
6:55 am 06:55 Clear 54 12 46 8 77 77 SSE 3 6 29.8 1009 10 16.09344 0 0
7:15 am 07:15 Clear 52 11 46 8 82 82 Calm 29.8 1009 10 16.09344 0 0
7:35 am 07:35 Clear 50 10 46 8 88 88 Calm 29.83 1010 10 16.09344 0 0
7:55 am 07:55 Sunny 48 9 45 7 87 87 Calm 29.85 1011 10 16.09344 0 0
8:15 am 08:15 Sunny 48 9 45 7 87 87 Calm 29.85 1011 10 16.09344 0 0
8:35 am 08:35 Sunny with Mist and Fog 50 10 46 8 88 88 Calm 29.85 1011 5 8.04672 0 0
8:55 am 08:55 Sunny 52 11 48 9 88 88 Calm 29.85 1011 7 11.265408 0 0
9:15 am 09:15 Sunny 55 13 50 10 82 82 Calm 29.85 1011 10 16.09344 0 0
9:35 am 09:35 Sunny 59 15 50 10 72 72 Calm 29.83 1010 7 11.265408 0 0
9:55 am 09:55 Sunny 61 16 50 10 68 68 Calm 29.83 1010 10 16.09344 0 0
10:15 am 10:15 Sunny 63 17 50 10 64 64 Calm 29.83 1010 10 16.09344 0 0
10:35 am 10:35 Sunny 63 17 50 10 64 64 Calm 29.83 1010 10 16.09344 0 0
10:55 am 10:55 Sunny 64 18 50 10 60 60 Calm 29.83 1010 10 16.09344 0 0
11:15 am 11:15 Sunny 66 19 52 11 60 60 Calm 29.8 1009 10 16.09344 0 0
11:35 am 11:35 Sunny 70 21 52 11 53 53 Calm 29.8 1009 10 16.09344 0 0
11:55 am 11:55 Sunny 72 22 52 11 50 50 ESE 6 9 29.77 1008 10 16.09344 0 0
12:15 pm 12:15 Sunny 72 22 50 10 47 47 ESE 5 7 29.77 1008 10 16.09344 0 0
12:35 pm 12:35 Sunny 73 23 50 10 44 44 ENE 5 7 29.77 1008 10 16.09344 0 0
12:55 pm 12:55 Sunny 75 24 50 10 41 41 E 5 7 29.77 1008 10 16.09344 0 0
1:15 pm 13:15 Sunny 75 24 50 10 41 41 SE 3 6 29.77 1008 10 16.09344 0 0
1:35 pm 13:35 Sunny 77 25 50 10 39 39 ENE 5 7 29.77 1008 7 11.265408 0 0
1:55 pm 13:55 Sunny 79 26 50 10 37 37 E 3 6 29.71 1006 10 16.09344 0 0
2:15 pm 14:15 Sunny 79 26 48 9 34 34 SE 6 9 29.71 1006 10 16.09344 0 0
2:35 pm 14:35 Sunny 81 27 48 9 32 32 SE 5 7 29.71 1006 10 16.09344 0 0
2:55 pm 14:55 Sunny 81 27 48 9 32 32 E 6 9 29.68 1005 10 16.09344 0 0
3:15 pm 15:15 Sunny 81 27 48 9 32 32 Calm 29.68 1005 10 16.09344 0 0
3:35 pm 15:35 Sunny 81 27 46 8 30 30 SE 6 9 29.68 1005 10 16.09344 0 0
3:55 pm 15:55 Sunny 82 28 46 8 28 28 Calm 29.68 1005 10 16.09344 0 0
4:15 pm 16:15 Sunny 81 27 46 8 30 30 SE 3 6 29.68 1005 10 16.09344 0 0
4:35 pm 16:35 Sunny 81 27 46 8 30 30 Calm 29.71 1006 10 16.09344 0 0
4:55 pm 16:55 Sunny 82 28 46 8 28 28 SE 3 6 29.71 1006 10 16.09344 0 0
5:15 pm 17:15 Sunny 81 27 46 8 30 30 S 3 6 29.71 1006 10 16.09344 0 0
5:35 pm 17:35 Sunny 81 27 46 8 30 30 SSE 3 6 29.71 1006 10 16.09344 0 0
5:55 pm 17:55 Sunny 81 27 46 8 30 30 Calm 29.71 1006 10 16.09344 0 0
6:15 pm 18:15 Sunny 81 27 46 8 30 30 Calm 29.71 1006 10 16.09344 0 0
6:35 pm 18:35 Sunny 79 26 46 8 32 32 Calm 29.71 1006 10 16.09344 0 0
6:55 pm 18:55 Clear 72 22 48 9 44 44 Calm 29.77 1008 10 16.09344 0 0
7:15 pm 19:15 Clear 70 21 48 9 46 46 Calm 29.8 1009 7 11.265408 0 0
7:35 pm 19:35 Hazy 66 19 48 9 52 52 Calm 29.8 1009 4 6.437376 0 0
7:55 pm 19:55 Hazy 66 19 48 9 52 52 Calm 29.8 1009 5 8.04672 0 0
8:15 pm 20:15 Hazy 64 18 46 8 52 52 Calm 29.83 1010 5 8.04672 0 0
8:35 pm 20:35 Hazy 66 19 48 9 52 52 NNE 3 6 29.8 1009 5 8.04672 0 0
8:55 pm 20:55 Clear 64 18 48 9 56 56 NNE 6 9 29.83 1010 7 11.265408 0 0
9:15 pm 21:15 Clear 63 17 48 9 59 59 NNE 7 11 29.83 1010 7 11.265408 0 0
9:35 pm 21:35 Clear 63 17 48 9 59 59 Calm 29.85 1011 10 16.09344 0 0
9:55 pm 21:55 Clear 64 18 48 9 56 56 SW 3 6 29.88 1012 7 11.265408 0 0
10:15 pm 22:15 Clear 64 18 48 9 56 56 W 5 7 29.88 1012 7 11.265408 0 0
10:35 pm 22:35 Clear 63 17 50 10 64 64 Calm 29.88 1012 7 11.265408 0 0
10:55 pm 22:55 Clear 61 16 50 10 68 68 WNW 3 6 29.88 1012 7 11.265408 0 0
11:15 pm 23:15 Clear 59 15 48 9 68 68 NW 5 7 29.91 1013 7 11.265408 0 0
11:35 pm 23:35 Clear 63 17 50 10 64 64 NNW 5 7 29.88 1012 10 16.09344 0 0
11:55 pm 23:55 Clear 61 16 48 9 63 63 Calm 29.88 1012 10 16.09344 0 0

Powered by AerisWeather